Temperature
16 16 16 17 14 12 14 14 16 17 17 18 18 18 16 16 17 17 16 16 16 16 16 16 16 16 16 16 16 16 16 16 16 15 15 15 15 15 15 15 15 15 15 15 15 15 15 15 14
15 16 16 16 12 13 13 14 16 16 18 18 18 17 16 16 16 16 16 16 16 16 16 16 16 16 16 16 16 16 16 16 15 15 15 15 15 15 15 15 15 15 15 15 15 15 15 14 14
15 16 16 12 12 13 14 15 15 16 18 18 17 17 16 16 16 16 16 16 16 16 16 15 15 15 15 15 15 15 15 15 15 15 15 15 15 15 15 14 14 15 15 15 15 14 14 14 14
15 15 15 11 13 13 14 15 15 16 17 17 16 15 15 15 15 15 15 15 15 15 15 15 15 15 15 15 15 15 15 15 15 15 15 15 15 15 14 14 14 14 15 15 14 14 14 14 14
15 14 12 12 13 13 14 15 16 15 15 16 16 14 14 15 15 15 15 15 15 15 15 15 15 15 15 15 15 15 15 15 15 14 15 15 15 15 14 14 14 14 14 14 14 14 14 14 13
14 12 11 11 13 14 14 15 15 14 15 16 15 14 14 14 14 14 15 15 15 15 15 15 15 15 14 14 15 15 15 14 14 14 14 14 14 14 14 14 14 14 14 14 14 14 14 13 13
13 10 11 12 12 13 14 15 15 14 14 15 15 13 13 13 14 14 14 14 14 14 14 14 14 14 14 14 14 14 14 14 14 14 14 14 14 14 14 14 14 14 14 14 14 14 13 13 13
13 10 11 11 12 13 14 15 15 14 14 15 15 13 12 13 13 13 13 14 14 14 14 14 14 14 14 14 14 14 14 14 14 14 14 14 14 14 14 14 14 14 14 14 14 13 13 13 13
13 9 10 11 12 13 13 13 14 14 14 14 14 14 14 13 13 13 13 13 13 13 13 13 13 13 13 13 13 13 14 14 13 13 14 14 14 14 14 14 13 13 13 13 13 13 13 13 13
12 9 10 12 12 12 13 13 13 13 12 12 13 13 13 13 12 12 13 13 13 13 13 13 13 13 13 13 13 13 13 13 13 13 13 13 13 13 13 13 13 13 13 13 13 13 13 13 12
10 9 10 11 12 12 12 12 13 12 11 12 12 12 12 12 12 12 12 12 13 13 13 13 13 13 13 13 13 13 13 13 13 13 13 13 13 13 13 13 13 13 13 13 12 12 12 12 12
10 10 11 11 12 12 11 11 11 11 12 12 12 12 12 12 12 12 12 12 12 12 12 12 12 12 12 12 12 12 12 12 12 12 12 13 13 13 13 13 13 13 13 12 12 12 12 12 12
10 10 11 11 11 11 11 10 10 11 11 12 12 12 12 11 11 11 11 12 12 12 12 12 12 12 12 12 12 12 12 12 12 12 12 12 12 12 12 12 12 12 12 12 12 12 12 12 12
9 10 10 10 10 10 10 9 9 10 11 11 11 11 11 11 11 11 11 11 11 11 11 12 12 12 12 12 12 12 12 12 12 12 12 12 12 12 12 12 12 12 12 12 12 12 11 11 11
10 8 8 9 10 10 9 8 8 10 10 10 10 11 11 11 10 11 11 11 11 11 11 11 11 11 11 11 11 11 11 11 11 11 11 11 11 12 12 12 12 12 11 11 11 11 11 11 11
9 8 7 8 9 9 9 7 8 10 9 9 9 10 10 10 10 10 10 10 10 11 11 11 11 11 11 11 11 11 11 11 11 11 11 11 11 11 11 11 11 11 11 11 11 11 11 11 10
7 6 7 8 8 8 7 7 7 9 9 8 9 9 9 9 9 10 10 10 10 10 10 10 10 10 10 10 10 10 11 11 11 10 10 10 10 10 11 11 11 11 11 10 10 10 10 10 10
6 6 6 7 7 7 6 6 7 8 8 8 8 8 8 9 9 9 9 10 10 10 10 10 10 10 10 10 10 10 10 10 10 10 10 10 10 10 10 10 10 10 10 10 10 10 10 10 10
7 6 6 7 7 7 6 6 6 7 7 7 7 8 8 8 9 9 9 9 9 9 9 9 9 10 10 9 9 9 9 10 9 9 10 10 10 10 10 10 10 10 10 10 10 10 10 9 9
6 6 6 6 7 7 5 6 6 6 6 7 7 7 8 8 8 8 8 9 9 9 9 9 9 9 9 9 9 9 9 9 9 9 9 9 9 9 9 9 9 9 9 9 9 9 9 9 9
6 5 5 6 6 6 5 5 5 6 7 7 7 7 7 7 7 8 8 8 8 9 9 9 9 9 9 9 9 9 9 9 9 9 9 9 9 9 9 9 9 9 9 9 9 9 9 9 8
5 6 6 6 5 4 5 4 5 5 5 6 6 6 7 7 7 7 8 8 8 8 8 8 8 8 8 8 8 9 8 8 9 8 8 8 8 8 8 8 9 9 9 9 8 8 8 8 8
5 6 5 5 4 3 3 3 4 4 4 5 5 6 6 7 7 7 7 7 8 8 8 8 8 8 8 8 8 8 8 8 8 8 8 8 8 8 8 8 8 8 8 8 8 8 8 8 8
5 5 4 3 2 3 3 3 3 3 4 4 5 5 6 6 6 7 7 7 7 7 7 7 8 8 8 8 8 8 8 7 7 7 7 7 7 7 7 8 8 8 8 8 8 7 8 7 7
4 3 3 2 2 2 3 3 3 4 4 4 4 5 5 6 6 6 6 6 6 6 6 7 7 7 7 7 7 7 7 7 7 7 7 7 7 7 7 7 7 7 7 7 7 7 7 7 7
3 3 2 2 2 2 3 2 3 4 4 5 5 5 5 5 5 6 6 6 6 6 6 6 6 7 7 7 7 7 7 6 6 6 6 6 6 6 6 6 7 7 7 7 7 7 7 6 6
3 2 3 1 1 1 2 2 3 4 3 3 4 4 4 5 5 5 5 5 5 5 6 6 6 6 6 6 6 6 6 6 6 6 6 6 6 6 6 6 6 6 6 6 6 6 6 6 6
3 2 1 1 2 2 2 2 2 3 3 3 2 3 3 4 4 4 4 4 5 5 5 5 5 5 5 5 5 6 6 6 5 5 5 5 5 5 5 5 5 5 6 5 5 5 6 5 5
2 2 1 0 0 1 1 2 3 3 3 2 2 3 3 3 4 4 4 4 4 4 4 4 4 5 5 5 5 5 5 5 5 5 5 5 5 5 5 5 5 5 5 5 5 5 5 5 5
2 2 1 1 0 -0 1 2 3 2 2 2 2 3 3 3 3 3 3 3 3 3 3 3 4 4 4 4 4 4 4 4 4 4 4 4 4 4 4 4 4 4 4 4 4 4 5 5 4
Wind_Speed
10 8 3 4 5 3 3 4 3 1 1 1 1 5 6 4 3 4 2 5 7 7 9 10 11 11 12 12 11 11 11 11 11 11 11 11 11 11 11 11 11 11 11 12 12 12 13 13 12
6 3 5 5 4 2 4 5 3 3 3 1 2 4 5 2 2 5 2 3 9 9 9 10 11 11 11 11 11 10 10 10 10 10 10 10 10 10 10 10 11 11 12 12 12 12 11 12 11
4 2 4 4 4 6 5 4 5 3 2 1 2 4 4 3 3 3 2 6 8 8 9 10 11 10 10 11 10 10 10 10 9 9 10 10 10 10 10 10 11 11 12 11 11 11 10 10 10
3 4 4 3 5 6 5 3 2 0 2 2 3 3 2 1 2 2 4 8 8 6 8 10 11 10 9 10 10 10 9 9 9 9 9 9 10 10 10 10 11 11 11 11 10 10 9 9 9
4 4 3 1 6 5 4 3 2 1 1 1 2 3 1 4 3 5 6 7 8 6 8 10 10 10 9 9 9 9 9 8 9 9 8 9 9 10 10 10 10 10 11 10 10 9 9 9 9
4 4 3 5 6 4 3 2 1 1 1 1 2 3 1 2 4 4 4 5 6 6 7 9 10 10 9 9 8 8 8 8 8 8 8 8 8 9 10 10 10 10 10 10 10 9 9 9 8
4 4 4 5 4 4 3 1 1 1 1 2 2 3 1 2 0 2 4 5 5 6 6 6 7 8 8 8 8 7 7 8 8 8 7 7 8 8 9 10 9 10 10 10 9 9 8 8 8
4 4 2 3 4 4 3 2 0 1 2 1 3 5 3 4 1 3 4 4 5 5 4 4 5 5 6 6 7 7 6 7 7 7 7 7 8 8 8 9 9 9 10 9 9 8 8 7 7
3 3 4 4 3 3 3 2 3 2 2 3 2 2 3 3 3 4 3 3 3 4 3 3 3 4 4 5 6 6 6 6 7 7 7 7 6 7 7 8 9 9 9 9 9 8 8 7 6
3 4 6 2 2 1 3 2 2 2 2 2 4 4 3 4 4 4 4 4 3 3 2 2 2 3 3 4 4 5 5 4 5 5 6 5 6 6 6 8 9 9 8 8 8 7 6 5 4
3 5 3 2 2 2 3 4 2 1 1 3 3 2 3 3 3 4 4 4 4 4 3 2 2 3 3 3 3 3 4 4 4 5 5 5 5 5 5 5 6 7 7 6 6 5 4 3 3
2 2 2 2 2 2 3 3 3 2 4 3 4 5 5 4 5 6 5 4 3 3 2 2 1 2 2 3 3 3 3 2 2 3 5 4 3 3 3 4 4 4 5 4 4 4 4 3 3
2 3 2 2 2 2 3 3 2 4 4 1 2 3 4 4 5 4 4 3 3 3 2 2 2 2 2 2 2 3 2 2 3 3 4 5 3 3 3 3 3 4 4 4 4 4 3 3 3
1 2 3 3 2 2 2 5 2 7 3 0 2 3 4 5 5 3 3 3 4 4 4 3 3 2 2 2 2 2 2 3 3 3 4 5 4 4 3 3 3 3 4 5 5 4 3 3 3
1 2 4 3 2 2 1 5 5 6 2 2 3 3 3 4 4 5 5 5 5 5 4 3 3 2 2 2 2 2 2 3 2 3 4 5 5 4 3 3 3 3 4 5 4 4 4 3 3
2 2 3 4 1 1 2 8 7 4 2 3 3 3 3 4 4 4 3 3 3 3 4 4 2 3 2 2 2 1 1 2 2 3 4 4 5 5 4 3 2 4 4 4 3 3 3 2 2
1 2 4 5 2 1 3 7 8 4 2 4 4 4 4 4 4 3 2 3 3 3 4 3 3 3 2 2 2 2 1 1 1 2 3 4 4 5 4 3 3 4 4 3 3 2 3 3 2
4 3 4 5 3 2 4 8 10 5 4 6 5 5 5 5 5 4 3 2 2 2 3 3 3 3 2 2 2 1 1 1 1 1 3 5 5 5 4 3 3 4 3 2 2 3 2 3 2
4 4 6 7 5 3 6 9 11 7 4 5 5 5 5 6 4 2 1 1 1 2 2 3 3 3 3 2 3 2 2 2 1 0 2 4 5 5 4 3 3 3 3 3 3 3 4 2 2
3 4 5 6 4 2 5 10 10 7 5 6 6 6 6 4 3 2 1 0 2 2 2 3 3 4 4 3 3 3 3 2 2 1 1 3 4 5 5 5 4 4 3 3 3 3 3 2 2
4 5 5 5 6 3 3 8 7 6 5 5 4 4 4 4 3 3 2 2 2 3 3 3 3 4 3 3 2 2 2 1 0 1 2 1 3 4 4 4 4 4 4 4 4 4 3 4 3
5 4 4 3 3 4 1 5 8 6 6 6 5 4 4 4 3 3 3 3 4 4 3 3 3 3 3 3 4 5 4 3 2 2 2 1 2 3 4 4 4 4 4 4 4 3 2 4 4
4 2 2 2 2 3 2 3 8 5 6 8 6 5 4 4 3 3 3 4 3 3 2 2 2 2 3 3 5 5 3 2 1 1 2 2 1 2 3 4 4 4 3 3 3 3 2 2 3
1 3 4 3 3 3 5 4 7 4 5 6 5 5 5 3 3 3 2 1 0 0 0 1 2 2 2 3 4 5 5 3 3 3 3 2 1 1 2 4 4 4 3 3 3 3 3 2 2
3 4 3 4 2 6 3 4 7 6 6 4 4 4 3 3 2 2 1 0 0 0 0 0 1 2 2 2 3 4 5 5 5 5 4 3 2 1 2 2 4 3 3 3 3 2 3 2 3
3 6 5 5 5 5 2 6 7 5 5 3 2 3 3 3 2 2 2 2 1 1 1 1 2 2 2 2 2 3 4 4 4 4 4 4 3 2 2 2 3 3 3 3 3 2 2 2 2
3 3 4 4 1 3 5 6 6 3 5 4 4 4 4 3 3 2 2 1 1 1 2 2 2 1 2 2 2 2 3 3 4 3 3 2 2 2 3 2 2 3 3 3 3 2 2 2 1
3 5 3 3 3 4 5 5 4 4 4 4 4 3 4 4 4 3 2 1 1 1 1 0 0 1 1 1 1 1 2 2 3 3 3 2 2 2 3 2 2 2 3 3 2 2 2 2 1
2 2 3 3 4 4 4 6 4 4 3 3 4 3 3 4 4 3 2 1 1 1 0 0 0 1 0 1 1 0 0 1 2 3 3 3 2 2 3 2 2 2 2 3 3 2 2 2 1
4 4 4 4 4 4 3 6 5 3 2 2 3 4 4 3 3 3 3 2 1 1 1 1 1 1 1 0 0 1 1 1 2 2 2 3 3 2 2 2 2 2 2 2 3 3 3 3 3
Wind_Direction
331 339 53 58 61 60 239 250 234 296 320 270 69 103 118 120 132 154 162 136 128 132 140 142 143 138 135 131 127 124 124 125 124 123 122 119 115 115 115 112 108 105 104 100 96 95 95 95 92
340 6 56 65 105 171 257 248 231 234 218 190 54 82 86 88 83 112 114 146 133 132 135 139 139 138 136 133 130 129 127 125 128 129 127 126 122 119 118 117 113 110 106 103 100 98 97 97 95
342 57 85 87 142 190 218 232 215 247 287 121 59 49 100 128 122 145 174 142 126 128 136 142 140 136 137 136 134 131 130 129 127 130 132 131 129 123 121 119 115 113 110 107 105 102 101 100 95
51 51 63 98 210 223 214 237 233 264 355 32 107 64 51 25 148 160 129 126 126 127 135 143 144 141 137 139 137 136 135 133 133 130 134 136 134 129 125 120 117 115 114 114 111 108 105 100 95
63 83 91 214 237 245 241 263 272 273 267 346 102 112 50 344 45 91 103 120 133 131 135 145 148 146 140 138 141 140 140 138 135 134 132 137 138 135 129 124 121 121 120 118 115 112 107 101 94
66 83 133 219 240 256 273 281 275 287 275 323 102 121 169 352 77 96 105 117 128 133 129 143 152 149 147 143 143 144 142 141 140 137 137 135 137 141 136 130 127 127 125 121 117 113 109 103 97
113 121 179 210 234 258 269 304 188 217 249 248 134 117 186 300 167 119 108 103 100 117 118 125 144 149 151 148 146 150 148 143 140 139 139 137 136 139 143 140 137 134 131 126 123 121 115 107 100
130 122 191 225 225 247 298 346 78 174 227 322 94 135 200 248 227 95 90 98 97 92 101 110 125 136 141 149 148 144 148 149 144 141 137 134 138 138 143 146 143 139 136 132 130 127 119 108 102
95 105 209 220 208 246 329 351 335 331 88 36 43 160 213 158 108 94 80 67 95 94 82 90 102 110 129 143 148 142 140 143 141 139 133 129 128 131 135 145 145 141 140 136 134 129 122 110 99
106 181 221 236 208 273 332 335 319 12 29 26 8 11 76 112 120 131 140 145 143 139 128 97 104 106 114 130 130 128 129 128 132 135 134 132 129 133 135 140 145 142 137 135 132 129 123 108 94
154 194 220 275 301 330 332 327 339 128 262 234 217 178 132 134 151 167 177 177 179 173 152 138 110 110 113 106 112 107 112 115 124 134 132 131 127 126 131 132 142 143 136 127 123 118 110 107 102
189 251 218 249 319 338 318 318 329 248 232 231 198 167 161 170 187 190 194 196 181 167 170 158 113 122 114 113 117 116 112 116 127 145 140 135 130 132 140 144 147 144 140 126 117 116 112 105 105
234 272 295 288 345 329 329 301 283 278 270 255 142 143 183 199 211 211 205 197 178 177 187 184 147 148 137 120 132 134 135 140 149 151 150 148 143 150 147 148 152 144 144 140 133 129 120 113 106
235 279 300 297 301 287 281 292 283 268 276 184 165 192 205 215 220 218 207 198 195 192 194 187 165 152 141 133 141 157 151 146 151 158 159 154 148 146 147 146 150 152 156 156 148 140 128 124 111
21 342 321 285 243 254 328 302 254 261 271 266 245 230 228 232 233 224 212 199 196 196 186 176 178 151 156 155 155 139 144 148 153 167 165 156 148 143 138 145 150 155 153 146 135 124 114 112 104
33 23 301 293 223 220 153 270 282 276 255 269 270 264 254 251 242 240 222 198 194 182 181 184 176 158 159 157 155 139 127 134 153 169 165 158 154 148 137 143 157 154 147 133 141 134 126 114 109
23 260 259 287 258 197 184 261 282 272 241 260 268 265 265 270 271 257 226 203 199 188 182 180 172 164 168 167 148 129 118 120 145 165 163 160 157 153 140 144 147 148 140 138 151 143 139 134 117
226 240 254 263 275 234 241 261 281 283 244 249 254 261 265 264 261 249 227 205 196 187 180 175 171 167 161 151 122 95 112 93 78 152 166 155 158 152 141 140 144 138 144 145 143 150 136 139 137
198 222 258 267 272 253 252 267 276 279 270 261 261 261 260 258 269 271 245 186 168 181 182 185 172 170 160 166 162 181 202 196 184 214 168 154 155 153 146 144 149 145 155 163 150 150 143 145 134
242 265 275 289 315 287 276 280 277 264 250 247 249 253 254 269 311 312 300 204 205 193 202 202 191 182 186 191 187 186 180 188 184 184 169 156 156 158 159 157 162 158 152 154 157 147 161 173 171
246 225 246 273 319 325 307 301 290 289 268 269 263 252 252 236 241 253 254 236 228 211 210 214 204 191 192 188 158 127 109 92 112 213 193 171 161 158 163 165 160 159 163 175 182 178 174 184 201
248 232 234 268 308 292 288 288 288 291 298 287 277 269 256 249 249 249 240 235 231 223 215 211 205 190 188 174 169 169 174 186 212 206 199 182 167 164 163 158 159 162 166 176 186 192 181 176 192
216 255 252 255 234 292 268 237 285 311 298 287 275 267 255 248 241 248 241 230 227 216 208 206 189 184 189 182 178 175 177 183 173 173 174 178 184 172 168 161 161 165 170 180 186 182 176 181 194
162 28 22 36 74 272 234 200 281 273 271 293 281 271 262 257 246 252 265 268 282 251 159 152 170 194 198 185 184 181 178 174 166 182 180 183 196 185 175 165 164 168 172 182 189 185 175 187 184
88 87 23 352 328 252 243 210 253 262 271 263 267 282 278 270 258 267 293 337 323 290 257 163 177 215 216 191 195 190 185 181 185 190 185 183 189 206 200 181 170 172 173 170 171 174 178 179 181
188 154 167 207 233 275 278 234 253 277 295 294 289 306 313 308 288 249 231 212 200 220 242 227 220 230 225 207 216 195 183 184 190 191 181 187 195 197 188 182 173 170 165 161 161 170 176 173 175
159 193 175 155 209 269 265 276 291 316 343 349 354 357 339 323 316 284 258 232 211 225 235 227 223 228 228 224 224 205 194 182 183 179 168 174 184 185 164 165 174 167 162 160 161 165 170 160 170
161 149 114 147 194 252 275 265 257 282 306 330 342 333 324 330 333 323 295 283 259 244 260 275 213 217 225 208 214 207 205 178 167 161 163 161 169 173 158 157 168 167 160 156 155 154 154 146 162
148 153 161 165 184 195 257 268 236 228 258 286 298 309 312 316 320 320 312 304 309 0 11 21 21 29 240 214 210 182 194 152 143 152 166 169 170 170 167 167 168 175 170 163 158 164 158 151 159
182 182 159 180 235 208 225 267 277 250 275 286 292 306 313 317 326 335 341 349 4 2 349 348 343 11 302 247 157 138 113 110 143 159 173 169 165 176 168 160 165 173 179 170 165 171 172 171 179
Height
1514 1515 1516 1518 1522 1532 1532 1525 1518 1515 1513 1512 1511 1511 1512 1516 1519 1525 1521 1520 1521 1522 1524 1526 1527 1528 1529 1530 1531 1532 1532 1533 1534 1534 1535 1535 1536 1536 1537 1537 1537 1538 1538 1538 1538 1538 1538 1538 1538
1514 1515 1517 1518 1527 1537 1531 1521 1516 1513 1512 1511 1511 1511 1512 1515 1516 1518 1518 1519 1521 1522 1524 1525 1527 1528 1529 1529 1530 1531 1532 1533 1533 1534 1535 1535 1536 1536 1537 1537 1537 1538 1538 1538 1539 1539 1539 1539 1539
1513 1514 1517 1520 1529 1532 1525 1516 1513 1511 1511 1511 1512 1512 1513 1515 1517 1517 1518 1519 1521 1522 1523 1525 1526 1527 1528 1529 1530 1530 1531 1532 1533 1534 1534 1535 1536 1536 1537 1537 1538 1538 1538 1538 1539 1539 1539 1539 1539
1513 1515 1517 1524 1526 1521 1517 1513 1512 1511 1511 1511 1511 1513 1515 1517 1517 1518 1517 1518 1520 1521 1523 1524 1525 1527 1528 1528 1529 1530 1531 1531 1532 1533 1534 1535 1535 1536 1536 1537 1538 1538 1538 1538 1539 1539 1540 1540 1540
1512 1514 1521 1526 1522 1516 1513 1512 1511 1511 1511 1511 1511 1513 1515 1517 1517 1517 1517 1518 1519 1520 1522 1523 1525 1526 1527 1528 1528 1529 1530 1531 1531 1532 1533 1534 1535 1535 1536 1537 1537 1538 1538 1538 1539 1539 1539 1540 1540
1513 1515 1525 1526 1520 1514 1511 1511 1511 1511 1511 1511 1511 1512 1514 1516 1516 1516 1517 1517 1519 1520 1521 1522 1524 1525 1526 1527 1527 1528 1529 1530 1530 1531 1532 1533 1534 1534 1535 1536 1537 1537 1537 1538 1538 1539 1539 1539 1540
1513 1518 1522 1520 1518 1515 1511 1511 1511 1511 1511 1511 1511 1512 1513 1514 1515 1515 1516 1517 1518 1519 1520 1521 1522 1524 1525 1525 1526 1527 1528 1529 1529 1530 1531 1532 1533 1533 1534 1535 1536 1536 1537 1537 1538 1538 1539 1539 1539
1512 1517 1519 1519 1517 1514 1511 1510 1510 1510 1510 1511 1511 1512 1513 1514 1514 1514 1515 1516 1517 1517 1519 1520 1521 1522 1523 1524 1525 1526 1526 1527 1528 1529 1530 1531 1531 1532 1533 1534 1535 1535 1536 1536 1537 1537 1538 1538 1539
1512 1519 1520 1516 1515 1513 1510 1510 1510 1510 1509 1510 1510 1511 1511 1512 1513 1513 1513 1514 1515 1516 1517 1518 1519 1520 1521 1522 1523 1524 1525 1526 1527 1527 1528 1529 1530 1531 1532 1533 1534 1534 1535 1535 1536 1537 1537 1538 1538
1511 1519 1515 1512 1511 1511 1510 1510 1510 1509 1509 1509 1509 1509 1510 1511 1511 1511 1511 1511 1512 1513 1515 1516 1517 1518 1519 1520 1521 1522 1523 1524 1524 1525 1526 1527 1528 1529 1530 1531 1532 1533 1534 1534 1535 1536 1536 1537 1538
1510 1513 1512 1511 1510 1510 1509 1509 1509 1509 1509 1509 1508 1508 1508 1509 1509 1510 1510 1510 1511 1511 1513 1514 1515 1516 1517 1518 1518 1519 1520 1521 1522 1523 1524 1525 1526 1527 1528 1529 1530 1531 1532 1533 1533 1534 1535 1536 1537
1510 1510 1510 1510 1510 1510 1509 1509 1509 1508 1507 1507 1507 1507 1507 1507 1507 1508 1508 1508 1509 1510 1510 1512 1513 1514 1514 1515 1516 1517 1518 1519 1520 1521 1522 1523 1524 1524 1525 1527 1528 1529 1530 1531 1532 1533 1534 1535 1536
1510 1510 1509 1509 1509 1509 1509 1508 1508 1506 1506 1506 1505 1505 1505 1505 1506 1506 1507 1507 1507 1507 1508 1509 1510 1511 1512 1513 1514 1514 1515 1516 1517 1518 1519 1520 1521 1522 1523 1524 1526 1527 1528 1529 1530 1531 1533 1534 1535
1509 1509 1509 1508 1508 1508 1508 1507 1507 1503 1504 1503 1503 1503 1503 1504 1503 1504 1504 1504 1504 1505 1506 1507 1507 1509 1509 1510 1511 1512 1513 1514 1515 1516 1517 1518 1519 1520 1521 1522 1523 1525 1526 1527 1528 1530 1531 1532 1533
1509 1510 1509 1507 1507 1507 1508 1507 1505 1503 1503 1502 1501 1501 1501 1501 1502 1502 1501 1502 1502 1502 1503 1504 1505 1506 1507 1508 1508 1509 1510 1511 1512 1513 1514 1515 1517 1518 1519 1520 1521 1522 1524 1525 1526 1528 1529 1530 1532
1510 1513 1514 1508 1506 1506 1511 1509 1502 1502 1501 1499 1499 1498 1498 1499 1499 1499 1499 1499 1500 1500 1501 1501 1502 1503 1504 1505 1506 1507 1508 1508 1509 1511 1512 1513 1514 1516 1517 1518 1519 1520 1522 1523 1524 1525 1527 1528 1530
1514 1517 1515 1510 1506 1506 1509 1507 1501 1500 1499 1497 1496 1496 1496 1495 1495 1495 1496 1496 1497 1498 1498 1499 1499 1500 1501 1502 1503 1504 1505 1506 1507 1508 1508 1510 1511 1513 1514 1516 1517 1518 1519 1521 1522 1524 1525 1526 1528
1517 1517 1514 1511 1506 1506 1508 1505 1499 1498 1497 1495 1494 1493 1493 1492 1492 1492 1493 1493 1494 1495 1496 1496 1497 1497 1498 1499 1500 1501 1503 1504 1505 1505 1505 1507 1509 1510 1512 1513 1515 1516 1517 1518 1520 1521 1523 1524 1525
1511 1512 1512 1509 1505 1506 1505 1502 1497 1495 1494 1492 1491 1490 1489 1489 1489 1489 1490 1490 1491 1492 1492 1493 1493 1494 1495 1496 1497 1498 1499 1500 1501 1502 1503 1504 1506 1507 1509 1510 1512 1513 1514 1515 1517 1518 1520 1521 1523
1510 1512 1512 1508 1504 1505 1504 1500 1494 1492 1491 1489 1487 1486 1486 1485 1486 1486 1486 1486 1487 1488 1489 1490 1490 1491 1492 1493 1494 1495 1496 1497 1498 1499 1500 1502 1503 1504 1506 1507 1509 1510 1512 1513 1514 1515 1516 1518 1519
1510 1512 1511 1509 1506 1504 1505 1500 1492 1488 1487 1486 1485 1484 1484 1484 1483 1483 1482 1482 1483 1484 1485 1486 1487 1488 1489 1490 1491 1492 1493 1494 1495 1496 1496 1498 1500 1501 1503 1505 1506 1507 1509 1510 1511 1512 1513 1514 1516
1510 1506 1507 1507 1511 1512 1508 1511 1495 1489 1486 1483 1482 1481 1481 1481 1480 1479 1479 1479 1479 1480 1481 1483 1484 1485 1485 1486 1488 1489 1490 1490 1491 1493 1494 1495 1496 1498 1500 1501 1503 1504 1506 1507 1508 1509 1510 1511 1512
1506 1504 1506 1507 1511 1515 1511 1514 1499 1490 1488 1483 1480 1478 1478 1478 1477 1476 1476 1476 1477 1477 1478 1479 1481 1482 1483 1483 1485 1486 1487 1488 1489 1490 1491 1492 1493 1495 1497 1499 1500 1501 1503 1504 1505 1506 1507 1508 1509
1503 1506 1508 1512 1516 1519 1510 1513 1501 1494 1487 1481 1478 1476 1475 1475 1474 1474 1473 1473 1474 1474 1475 1476 1478 1479 1480 1480 1482 1483 1484 1485 1486 1487 1488 1490 1491 1492 1494 1495 1497 1498 1500 1501 1502 1503 1504 1505 1506
1505 1513 1521 1522 1525 1517 1506 1506 1498 1486 1482 1479 1477 1475 1474 1473 1472 1472 1471 1470 1471 1471 1472 1473 1474 1475 1476 1477 1479 1480 1481 1482 1483 1485 1486 1487 1488 1489 1491 1492 1494 1495 1497 1498 1499 1500 1500 1501 1502
1506 1510 1520 1524 1524 1515 1507 1505 1492 1483 1480 1478 1476 1474 1473 1472 1471 1470 1470 1469 1469 1469 1470 1470 1471 1472 1473 1475 1476 1477 1478 1479 1481 1482 1483 1484 1485 1487 1488 1490 1491 1492 1494 1495 1496 1496 1497 1498 1499
1505 1509 1509 1518 1521 1520 1509 1500 1488 1481 1479 1477 1475 1474 1472 1471 1470 1469 1468 1468 1468 1468 1468 1468 1469 1469 1471 1472 1473 1474 1476 1476 1478 1479 1480 1481 1483 1484 1485 1487 1488 1489 1490 1491 1492 1493 1494 1495 1496
1502 1505 1512 1517 1518 1515 1506 1501 1492 1483 1480 1478 1476 1474 1473 1471 1470 1468 1467 1466 1466 1466 1466 1466 1467 1467 1468 1470 1471 1472 1473 1473 1475 1476 1477 1478 1480 1481 1482 1483 1484 1485 1486 1488 1489 1490 1491 1492 1492
1503 1506 1508 1514 1515 1514 1510 1498 1483 1481 1478 1477 1476 1474 1473 1471 1469 1467 1466 1465 1465 1465 1464 1464 1465 1465 1466 1467 1468 1469 1470 1471 1472 1473 1474 1476 1477 1478 1479 1480 1481 1482 1483 1484 1485 1486 1487 1488 1489
1499 1502 1506 1511 1512 1513 1510 1498 1478 1477 1476 1476 1475 1474 1473 1471 1469 1467 1466 1465 1464 1463 1463 1463 1463 1463 1464 1464 1465 1466 1467 1468 1469 1470 1472 1473 1474 1475 1476 1477 1478 1479 1480 1481 1482 1483 1484 1485 1485